Showing default

OPS 4467 B, 813

Orbit data source: Space-Track

OPS 4467 B, 813 is an American payload satellite in SSO that was launched on Thu, 18 Jun 1964 UTC via a THOR SLV-2 AGENA D launch vehicle from the Air Force Western Test Range (AFWTR). Payload-class satellites include a variety of spacecraft equipped with specific instruments for various scientific and technological missions. These include communications satellites like Starlink; space stations such as the ISS; scientific satellites like the Hubble; Earth observation satellites from companies like Planet Labs, Umbra, and HawkEye 360; GPS; miniature CubeSats for education and research; and military/defense satellites.

Loading next visibility...
Identifier
813, 1964-031B
Orbit
SSO
Last TLE update
15 hours ago
Origin
Manufacturer
RCA/East Windsor
Mission
Defense Weather
Bus & Motor
P35, Unknown motor
Mass
50 kg wet, 50 kg dry
Launch date (UTC)
1964-06-18 (61 years ago)
Launch vehicle
THOR SLV-2 AGENA D
Launch site
Air Force Western Test Range (AFWTR)
Object type
Payload
Rocket body
Debris
Shape & HBR
Cyl, 0.6 m
Radar Cross Section
0.377 m², Medium (>0.1 m² and < 1m²)

Expand to show TLE details & history

TLE from 15 hours ago
0 OPS 4467 B
1 00813U 64031B   25129.25041997  .00000100  00000-0  67234-4 0  9999
2 00813  99.7810 231.2875 0004790 220.2501 139.8319 14.23588658157454
Epoch: 2025-05-09T06:00Z
Definitive object data (Epoch: 2025-05-09T06:00:36.285Z)
Latitude
-0.00009°
Longitude
-86.17293°
Altitude
818.758 km
Speed
7.442 km/s
True Right ascension
15h 25m 09s
True Declination
0° 00' 00"
Sunlit
Object was in full shadow at TLE epoch
Visualization TLE readout
Latitude
-44.54709°
Longitude
84.78297°
Altitude
826.923 km
Speed
7.44 km/s
Apparent Right ascension
22h 08m 19s
Apparent Declination
-74° 31' 50"
Sunlit
Object is in daylight
Visualization observer readout
Local Sidereal Time
04:44:41
Azimuth
200.295° SSW
Elevation
-40.597°
Doppler factor
1
Orbital elements
Apogee altitude
813.893 km
Perigee altitude
807.007 km
Semi-major axis
7,188.587 km
Eccentricity
0.000479
Inclination
99.781°
RAAN
231.2875°
Arg. of periapsis
220.2501°
True anomaly
139.86729°
Mean anomaly
139.8319°
Eccentric anomaly
139.8496°
Mean motion
3.56105 °/min
BSTAR
0.000067234
Orbital period
101.09 mins
Loading maneuver chart data...
Loading SW <> Apogee altitude chart data...
Loading historical data...
Loading historical data...
Loading historical data...
Loading historical data...
Loading historical data...
Loading historical data...
Loading historical data...
Other satellites on launch #31 in the year 1964 (1964-06-18 UTC)

OPS 4467 B Visibility forecast

Observer location: undefined°, undefined°

Span
Click to sort rows by Start time (UTC) header in descending order
Start Az.
Max El. time (UTC)
Max El. Az.
Max El.
End time (UTC)
End Az.
8 mins2025-05-10 05:45:32.055Z123.718° SE2025-05-10 05:49:32.055Z73.44° E26.319°2025-05-10 05:53:32.055Z12.407° NNE
7 mins2025-05-10 07:26:32.055Z208.783° SW2025-05-10 07:29:32.055Z259.788° W29.28°2025-05-10 07:33:32.055Z320.999° NNW
9 mins2025-05-10 19:42:32.055Z17.375° NNE2025-05-10 19:46:32.055Z136.286° SSE44.759°2025-05-10 19:51:32.055Z193.706° SSW
|